Notices

What's New in latest Release from April 7th, 2021:

- Updated Glossary, including Speed of Maximum Gust, and Total Hourly Precipitation

- Updated national and regional climate services offices contacts and prices information

- Addition of station inventory lists for 1981-2010, 1971-2000, and 1961-1990 Normals.

Please note that as of June 10, 2021 UTC dates are available for all years 2004-present, and DBA is working on populating the remaining years (2003 to 1953).

If you haven't already, please take our survey and provide feedback about our website: https://eccc.sondage-survey.ca/f/LanguageSelection.aspx?s=442ca660-fcf1-47c0-95a9-59707d6fd709

Hourly Data Report for November 01, 2019

VICTORIA UNIVERSITY CS
BRITISH COLUMBIA
Current Station Operator: ECCC - MSC

48°27'25.200" N
123°18'16.600" W
60.10 m
1018598
71783
WYJ

Download Data

Hourly Data (November 2019)
Hourly Data Report for November 1, 2019
TIME
LST
Temp Definition
°C
Dew Point Definition
°C
Rel Hum Definition
%
Precip. Amount Definition
mm

Wind Dir Definition
10's deg

Wind Spd Definition
km/h
Visibility Definition
km
Stn Press Definition
kPa
Hmdx Definition


Wind Chill Definition


Weather Definition


00:00 5.6 4.3 91 0.0 35 5   102.42     LegendNANA
01:00 4.9 4.1 94 0.0 32 3   102.43     LegendNANA
02:00 5.0 4.2 94 0.0 32 4   102.42     LegendNANA
03:00 5.4 4.7 95 0.0 33 4   102.45     LegendNANA
04:00 5.8 4.7 93 0.0 34 6   102.46     LegendNANA
05:00 5.2 4.5 95 0.0 35 4   102.48     LegendNANA
06:00 5.6 4.9 96 0.0 36 6   102.47     LegendNANA
07:00 6.0 5.4 96 0.0 35 6   102.51     LegendNANA
08:00 6.7 5.6 93 0.0 35 6   102.54     LegendNANA
09:00 7.0 5.7 91 0.0 1 8   102.52     LegendNANA
10:00 7.5 5.9 89 0.0 1 11   102.54     LegendNANA
11:00 8.8 6.3 85 0.0 36 10   102.54     LegendNANA
12:00 9.2 6.1 81 0.0 36 12   102.50     LegendNANA
13:00 10.2 6.2 76 0.0 36 9   102.45     LegendNANA
14:00 10.8 6.6 75 0.0 36 10   102.40     LegendNANA
15:00 10.0 6.3 78 0.0 2 8   102.37     LegendNANA
16:00 9.3 6.0 80 0.0 2 6   102.34     LegendNANA
17:00 7.8 6.1 89 0.0 1 3   102.30     LegendNANA
18:00 7.1 6.1 93 0.0 2 4   102.29     LegendNANA
19:00 6.8 6.1 95 0.0 1 3   102.26     LegendNANA
20:00 7.2 5.9 91 0.0 36 2   102.23     LegendNANA
21:00 5.9 5.3 96 0.0 36 3   102.24     LegendNANA
22:00 7.1 6.5 96 0.0 1 6   102.23     LegendNANA
23:00 6.8 6.3 97 0.0 36 3   102.23     LegendNANA

Notes on Data Quality.

Legend

  • E = Estimated
  • M = Missing
  • NA = Not Available*
  • [empty] = Indicates an unobserved value
Date modified: